TimeCST,TemperatureF,Dew PointF,Humidity,Sea Level PressureIn,VisibilityMPH,Wind Direction,Wind SpeedMPH,Gust SpeedMPH,PrecipitationIn,Events,Conditions,WindDirDegrees,DateUTC
12:15 AM,40.6,34.0,77,30.23,10.0,Calm,Calm,-,N/A,,Mostly Cloudy,0,2013-01-09 06:15:00
12:35 AM,42.3,35.2,76,30.24,10.0,Calm,Calm,-,N/A,,Overcast,0,2013-01-09 06:35:00
12:55 AM,42.8,36.1,77,30.24,10.0,Calm,Calm,-,N/A,,Overcast,0,2013-01-09 06:55:00
1:15 AM,43.0,36.3,77,30.24,10.0,Calm,Calm,-,N/A,,Overcast,0,2013-01-09 07:15:00
1:55 AM,41.9,36.1,80,30.25,10.0,Calm,Calm,-,N/A,,Overcast,0,2013-01-09 07:55:00
2:15 AM,42.1,36.1,79,30.25,10.0,Calm,Calm,-,N/A,,Mostly Cloudy,0,2013-01-09 08:15:00
2:35 AM,42.8,36.5,78,30.26,10.0,Calm,Calm,-,N/A,Rain,Light Rain,0,2013-01-09 08:35:00
2:55 AM,42.8,37.4,81,30.26,10.0,Calm,Calm,-,N/A,Rain,Rain,0,2013-01-09 08:55:00
3:15 AM,42.8,38.5,85,30.25,10.0,Calm,Calm,-,N/A,Rain,Light Rain,0,2013-01-09 09:15:00
3:35 AM,42.4,40.3,92,30.26,10.0,Calm,Calm,-,N/A,Rain,Light Rain,0,2013-01-09 09:35:00
3:55 AM,42.8,41.7,96,30.26,10.0,NNW,4.6,-,0.01,,Drizzle,340,2013-01-09 09:55:00
4:15 AM,42.6,42.4,99,30.26,10.0,Calm,Calm,-,N/A,Rain,Rain,0,2013-01-09 10:15:00
4:35 AM,42.4,42.4,100,30.27,10.0,Calm,Calm,-,N/A,,Overcast,0,2013-01-09 10:35:00
4:55 AM,42.6,42.6,100,30.28,10.0,Calm,Calm,-,N/A,,Overcast,0,2013-01-09 10:55:00
5:15 AM,43.9,43.9,100,30.30,10.0,NW,6.9,-,N/A,,Overcast,320,2013-01-09 11:15:00
5:35 AM,44.1,42.1,93,30.30,10.0,North,3.5,-,N/A,,Overcast,350,2013-01-09 11:35:00
5:55 AM,44.1,41.9,92,30.32,10.0,North,4.6,-,N/A,,Overcast,350,2013-01-09 11:55:00
6:15 AM,44.2,42.3,93,30.32,10.0,Calm,Calm,-,N/A,,Overcast,0,2013-01-09 12:15:00
6:35 AM,44.8,39.9,83,30.32,10.0,Calm,Calm,-,N/A,,Overcast,0,2013-01-09 12:35:00
6:55 AM,44.2,40.3,86,30.35,10.0,Calm,Calm,-,N/A,,Overcast,0,2013-01-09 12:55:00
7:35 AM,44.2,42.4,93,30.36,10.0,Calm,Calm,-,N/A,,Overcast,0,2013-01-09 13:35:00
7:55 AM,45.3,41.0,85,30.36,10.0,Calm,Calm,-,N/A,,Overcast,0,2013-01-09 13:55:00
8:15 AM,45.9,41.4,84,30.38,10.0,Calm,Calm,-,N/A,,Overcast,0,2013-01-09 14:15:00
8:35 AM,46.4,41.5,83,30.39,10.0,Calm,Calm,-,N/A,,Overcast,0,2013-01-09 14:35:00
8:55 AM,46.4,41.5,83,30.39,10.0,SE,3.5,-,N/A,,Overcast,140,2013-01-09 14:55:00
9:15 AM,47.5,42.1,82,30.41,10.0,Calm,Calm,-,N/A,,Overcast,0,2013-01-09 15:15:00
9:35 AM,48.0,42.3,80,30.41,10.0,Calm,Calm,-,N/A,,Overcast,0,2013-01-09 15:35:00
9:55 AM,48.4,43.0,82,30.40,10.0,Calm,Calm,-,N/A,,Overcast,0,2013-01-09 15:55:00
10:15 AM,48.4,43.0,82,30.39,10.0,Calm,Calm,-,N/A,,Overcast,0,2013-01-09 16:15:00
10:55 AM,51.8,44.6,76,30.38,10.0,Calm,Calm,-,N/A,,Overcast,0,2013-01-09 16:55:00
11:35 AM,54.3,45.9,73,30.37,10.0,Calm,Calm,-,N/A,,Mostly Cloudy,0,2013-01-09 17:35:00
12:35 PM,55.4,45.5,69,30.35,10.0,Calm,Calm,-,N/A,,Clear,0,2013-01-09 18:35:00
12:55 PM,56.3,44.8,65,30.34,10.0,NNE,4.6,-,N/A,,Clear,30,2013-01-09 18:55:00
1:15 PM,57.2,44.8,63,30.35,10.0,NNE,6.9,-,N/A,,Clear,30,2013-01-09 19:15:00
1:35 PM,57.4,44.8,63,30.35,10.0,NE,3.5,-,N/A,,Clear,40,2013-01-09 19:35:00
1:55 PM,58.1,45.1,62,30.36,10.0,NNE,4.6,-,N/A,,Clear,30,2013-01-09 19:55:00
2:15 PM,58.1,44.2,60,30.36,10.0,NNE,5.8,-,N/A,,Clear,30,2013-01-09 20:15:00
2:35 PM,58.8,45.3,61,30.37,10.0,Calm,Calm,-,N/A,,Clear,0,2013-01-09 20:35:00
2:55 PM,58.3,45.1,62,30.36,10.0,ENE,3.5,-,N/A,,Clear,60,2013-01-09 20:55:00
3:15 PM,58.8,45.3,61,30.37,10.0,ENE,3.5,-,N/A,,Clear,70,2013-01-09 21:15:00
3:35 PM,58.1,44.4,60,30.37,10.0,ENE,3.5,-,N/A,,Clear,70,2013-01-09 21:35:00
3:55 PM,56.7,43.0,60,30.37,10.0,NNE,5.8,-,N/A,,Clear,20,2013-01-09 21:55:00
4:15 PM,55.6,41.4,59,30.38,10.0,NE,3.5,-,N/A,,Clear,40,2013-01-09 22:15:00
4:35 PM,54.5,41.4,61,30.38,10.0,NNE,4.6,-,N/A,,Clear,20,2013-01-09 22:35:00
4:55 PM,52.9,40.6,63,30.38,10.0,North,5.8,-,N/A,,Clear,10,2013-01-09 22:55:00
5:15 PM,52.3,39.6,62,30.39,10.0,NNE,5.8,-,N/A,,Clear,30,2013-01-09 23:15:00
5:35 PM,51.6,39.2,63,30.40,10.0,NNE,4.6,-,N/A,,Clear,30,2013-01-09 23:35:00
5:55 PM,50.9,39.2,64,30.42,10.0,ENE,4.6,-,N/A,,Clear,60,2013-01-09 23:55:00
6:15 PM,50.4,38.8,65,30.43,10.0,ENE,4.6,-,N/A,,Clear,60,2013-01-10 00:15:00
6:35 PM,50.0,39.2,66,30.43,10.0,ENE,4.6,-,N/A,,Clear,70,2013-01-10 00:35:00
6:55 PM,50.2,39.4,66,30.43,10.0,NE,5.8,-,N/A,,Clear,50,2013-01-10 00:55:00
7:15 PM,50.0,39.6,67,30.43,10.0,NE,3.5,-,N/A,,Clear,40,2013-01-10 01:15:00
7:35 PM,49.3,39.4,69,30.42,10.0,NE,8.1,-,N/A,,Clear,40,2013-01-10 01:35:00
8:15 PM,49.3,38.1,65,30.43,10.0,NE,4.6,-,N/A,,Clear,50,2013-01-10 02:15:00
8:35 PM,49.3,38.1,65,30.43,10.0,NE,4.6,-,N/A,,Clear,50,2013-01-10 02:35:00
8:55 PM,49.1,38.3,66,30.43,10.0,NE,5.8,-,N/A,,Clear,50,2013-01-10 02:55:00
9:15 PM,49.1,38.3,66,30.44,10.0,NE,5.8,-,N/A,,Clear,50,2013-01-10 03:15:00
9:35 PM,49.1,38.1,66,30.43,10.0,NE,6.9,-,N/A,,Clear,50,2013-01-10 03:35:00
9:55 PM,49.3,37.4,64,30.42,10.0,NE,8.1,-,N/A,,Clear,50,2013-01-10 03:55:00
10:15 PM,49.5,36.7,61,30.42,10.0,NE,10.4,-,N/A,,Clear,50,2013-01-10 04:15:00
10:35 PM,49.5,36.0,60,30.42,10.0,ENE,8.1,-,N/A,,Clear,60,2013-01-10 04:35:00
10:55 PM,49.5,35.6,59,30.43,10.0,ENE,6.9,-,N/A,,Clear,60,2013-01-10 04:55:00
11:15 PM,49.3,35.6,59,30.43,10.0,NE,6.9,-,N/A,,Scattered Clouds,50,2013-01-10 05:15:00
11:35 PM,49.1,35.8,60,30.43,10.0,ENE,4.6,-,N/A,,Scattered Clouds,70,2013-01-10 05:35:00
11:55 PM,49.1,36.0,61,30.43,10.0,ENE,6.9,-,N/A,,Mostly Cloudy,60,2013-01-10 05:55:00